OBJECT BM, 68475

Orbit data source: Space-Track

You're viewing an Uncataloged Satellite

Recently launched and/or uncataloged satellites may have evolving metadata. Metadata may include but not limited to: Owner, Maufacturer, Bus, Motor, and Mission.

OBJECT BM, 68475 is a satellite in SSO that was launched on Mon, 30 Mar 2026 UTC via an FALCON 9 launch vehicle from the Air Force Western Test Range (AFWTR). Unknown objects in Earth's orbit typically refer to objects detected orbiting the Earth but have not yet been identified or cataloged. These objects could be anything from previously untracked satellites, spent rocket stages, debris from satellite collisions, or even natural meteoroids temporarily captured by Earth's gravity.

Loading next visibility...
Identifier
68475, 2026-067BM
Orbit
SSO
Country
Flag of TBDTBD
Related business
None
Manufacturer
Unknown
Mission
Operational spacecraft
Bus & Motor
Unknown
Mass
Unknown
Launch date (UTC)
2026-03-30 (1 month ago)
Launch vehicle
FALCON 9
Launch site
Air Force Western Test Range (AFWTR)
Object type
Unknown
Shape & HBR
Unknown shape, 1.1 m
Radar Cross Section
RCS unknown

Expand to show TLE details & history
Last TLE update: 9 hours ago

TLE from 9 hours ago
0 OBJECT BM
1 68475U 26067BM  26127.14744225  .00006823  00000-0  68866-3 0  9994
2 68475  97.7500  85.9788 0003528 161.5145 198.6202 14.91383716  5080
Epoch: 2026-05-07T03:32Z
TLE epoch observation values (Epoch: 2026-05-07T03:32:19.010Z)
Latitude
-0.00006°
Longitude
167.90185°
Altitude
598.993 km
Speed
7.559 km/s
True Right ascension
05h 43m 54s
True Declination
0° 00' 00"
Sunlit
Object was in daylight at epoch
Visualization orbit readout
Latitude
Unknown
Longitude
Unknown
Altitude
Unknown
Speed
Unknown
Apparent Right ascension
Unknown
Apparent Declination
Unknown
Sunlit
N/A
Visualization observer readout
Local Sidereal Time
21:01:31
Azimuth
Unknown
Elevation
Unknown
Doppler factor
Unknown
Orbital elements
Apogee altitude
593.098 km
Perigee altitude
588.18 km
Semi-major axis
6,968.776 km
Eccentricity
0.00035
Inclination
97.75°
RAAN
85.9788°
Arg. of periapsis
161.5145°
True anomaly
198.6073°
Mean anomaly
198.6202°
Eccentric anomaly
198.61375°
Mean motion
3.73086 °/min
Orbital period
96.49 mins
BSTAR
0.00068866
Loading maneuver chart data...
Computing Atmospheric mass density...
Loading historical data...
Loading historical data...
Loading historical data...
Loading historical data...
Loading historical data...
Loading historical data...
Loading historical data...

Documentation

Showing up to 5 results
|